カタログに戻る

COSMOS 2425

GLONASS

運用中ナビゲーションMEO
NORAD 29670·PAYLOAD·🇷🇺 Russia

打ち上げ Dec 25, 2006 から Baikonur Cosmodrome

Loading…

次のパス (今後24時間)

TLE

最新Source: Space-Track

元期: Sep 13, 2026, 11:43 UTC

1 29670U 06062A   26256.48829913  .00000016  00000-0  00000-0 0  9990
2 29670  64.6947 191.3482 0022909 353.4785 185.8917  2.13117690153465

AllMySatでCOSMOS 2425をリアルタイム追跡

Download on the App Store